Date_and_time,latitude,longitude,wind_speed,RelWindDirFrom,WindDirFrom,air_pressure,air_temperature,relative_humidity,Temp,platform_speed_wrt_ground,air_pressure_at_mean_sea_level,platform_orientation
2018-04-28 00:00,50.630425,-96.9807616666667,2.1,2.7,9,993.52,3.1,78,4.88,0.0,1021.22,142.0
2018-04-28 00:10,50.6304266666667,-96.9807616666667,3.2,4.5,350,993.54,3.2,75,4.86,0.0,1021.24,142.0
2018-04-28 00:20,50.630425,-96.9807566666667,3.9,5.1,355,993.55,3.6,69,4.84,0.0,1021.24,142.0
2018-04-28 00:30,50.6304333333333,-96.9807566666667,5.5,6.9,16,993.57,3.9,66,4.87,0.0,1021.27,142.0
2018-04-28 00:40,50.6304,-96.9807533333333,6.9,8.2,23,993.67,3.4,70,4.88,0.0,1021.39,142.0
2018-04-28 00:50,50.6304033333333,-96.9807483333333,6.5,7.7,24,993.68,3.2,71,4.88,0.0,1021.39,142.0
2018-04-28 01:00,50.6304066666667,-96.98075,6.3,7.4,14,993.72,2.9,74,4.83,0.0,1021.45,360.0
2018-04-28 01:10,50.6304116666667,-96.9807566666667,6.4,7.3,18,993.82,2.5,76,4.74,0.0,1021.56,360.0
2018-04-28 01:20,50.6304066666667,-96.9807716666667,6.3,7.5,19,993.93,2.1,79,4.70,0.0,1021.68,360.0
2018-04-28 01:30,50.6304133333333,-96.9807766666667,6.9,8.6,13,994.02,1.5,82,4.68,0.0,1021.78,360.0
2018-04-28 01:40,50.630455,-96.980785,7.8,9.0,14,994.08,1.2,84,4.59,0.0,1021.88,360.0
2018-04-28 01:50,50.63044,-96.98077,8.2,10.1,13,994.18,1.1,84,4.52,0.0,1022.01,360.0
2018-04-28 02:00,50.63044,-96.9807683333333,8.3,11.6,10,994.22,0.9,85,4.53,0.0,1022.06,360.0
2018-04-28 02:10,50.63044,-96.980765,8.1,11.6,6,994.25,0.9,84,4.54,0.0,1022.06,360.0
2018-04-28 02:20,50.6304233333333,-96.98078,6.9,9.6,8,994.34,0.7,86,4.51,0.0,1022.15,360.0
2018-04-28 02:30,50.6304233333333,-96.98077,7.8,10.5,9,994.40,0.7,85,4.39,0.0,1022.23,360.0
2018-04-28 02:40,50.6304216666667,-96.9807683333333,7.0,9.4,5,994.52,0.6,86,4.38,0.0,1022.38,360.0
2018-04-28 02:50,50.6304233333333,-96.9807666666667,6.6,7.5,7,994.63,0.5,85,4.38,0.0,1022.51,360.0
2018-04-28 03:00,50.6304233333333,-96.980765,6.6,7.8,7,994.61,0.4,84,4.39,0.0,1022.51,270.0
2018-04-28 03:10,50.6304333333333,-96.9807666666667,7.0,8.1,4,994.66,0.5,81,4.39,0.0,1022.59,270.0
2018-04-28 03:20,50.6304383333333,-96.98077,6.5,7.5,5,994.79,0.6,77,4.39,0.0,1022.74,270.0
2018-04-28 03:30,50.630435,-96.9807683333333,6.3,7.3,355,994.81,0.6,75,4.29,0.0,1022.77,270.0
2018-04-28 03:40,50.6304233333333,-96.9807483333333,6.1,7.0,356,994.83,0.6,74,4.29,0.0,1022.80,270.0
2018-04-28 03:50,50.6304183333333,-96.9807566666667,5.5,6.2,359,994.95,0.6,72,4.33,0.0,1022.94,270.0
2018-04-28 04:00,50.6304166666667,-96.9807583333333,5.1,5.8,358,995.03,0.7,72,4.43,0.0,1023.01,345.5
2018-04-28 04:10,50.6304166666667,-96.9807616666667,4.5,5.7,353,995.06,0.7,70,4.40,0.0,1023.06,345.5
2018-04-28 04:20,50.6303766666667,-96.9808033333333,2.2,3.9,315,995.11,0.8,66,4.35,0.0,1023.11,345.5
2018-04-28 04:30,50.630415,-96.9807666666667,1.7,2.5,284,995.13,0.8,65,4.42,0.0,1023.13,345.5
2018-04-28 04:40,50.6304233333333,-96.9807683333333,1.6,2.1,267,995.20,0.5,67,4.48,0.0,1023.22,345.5
2018-04-28 04:50,50.630445,-96.98076,2.2,3.2,258,995.23,0.2,67,4.51,0.0,1023.26,345.5
2018-04-28 05:00,50.6304366666667,-96.9807583333333,2.9,3.7,256,995.22,-0.2,69,4.49,0.0,1023.27,167.4
2018-04-28 05:10,50.630435,-96.9807616666667,1.7,2.3,252,995.27,-0.3,69,4.46,0.0,1023.33,167.4
2018-04-28 05:20,50.6304333333333,-96.9807633333333,2.6,3.6,255,995.27,-0.5,69,4.46,0.0,1023.34,167.4
2018-04-28 05:30,50.6304333333333,-96.9807633333333,2.1,3.0,262,995.23,-0.6,69,4.39,0.0,1023.30,167.4
2018-04-28 05:40,50.6304333333333,-96.9807616666667,2.8,4.3,257,995.26,-0.5,67,4.37,0.0,1023.32,167.4
2018-04-28 05:50,50.6304316666667,-96.98074,3.2,4.4,262,995.29,-0.4,67,4.41,0.0,1023.35,167.4
2018-04-28 06:00,50.630435,-96.9807383333333,3.1,4.0,269,995.24,-0.4,67,4.44,0.0,1023.30,60.8
2018-04-28 06:10,50.6304333333333,-96.9807466666667,2.4,3.2,259,995.28,-0.5,68,4.41,0.0,1023.34,60.8
2018-04-28 06:20,50.6304333333333,-96.9807516666667,2.0,3.4,252,995.29,-0.7,68,4.42,0.0,1023.35,60.8
2018-04-28 06:30,50.6304333333333,-96.9807516666667,3.1,4.6,276,995.30,-0.5,66,4.33,0.0,1023.38,60.8
2018-04-28 06:40,50.6304316666667,-96.9807483333333,2.6,3.9,272,995.36,-0.4,65,4.18,0.0,1023.45,60.8
2018-04-28 06:50,50.63043,-96.98075,2.8,4.0,254,995.39,-0.8,68,4.14,0.0,1023.52,60.8
2018-04-28 07:00,50.63043,-96.9807633333333,3.0,4.1,262,995.34,-1.2,69,4.21,0.0,1023.50,345.5
2018-04-28 07:10,50.63044,-96.9807583333333,3.6,4.2,274,995.28,-0.6,64,4.17,0.0,1023.41,345.5
2018-04-28 07:20,50.6304383333333,-96.98076,3.6,4.8,274,995.26,-0.8,67,4.14,0.0,1023.41,345.5
2018-04-28 07:30,50.63045,-96.9807866666667,2.8,4.6,265,995.25,-1.2,70,4.18,0.0,1023.41,345.5
2018-04-28 07:40,50.6304333333333,-96.9807583333333,3.4,4.5,258,995.27,-1.4,71,4.25,0.0,1023.44,345.5
2018-04-28 07:50,50.630435,-96.98076,3.6,4.9,269,995.27,-1.5,71,4.21,0.0,1023.44,345.5
2018-04-28 08:00,50.6304366666667,-96.9807583333333,3.9,4.5,272,995.26,-1.4,70,4.22,0.0,1023.43,0.0
2018-04-28 08:10,50.630435,-96.9807583333333,4.3,5.7,273,995.23,-1.2,68,4.26,0.0,1023.40,0.0
2018-04-28 08:20,50.630435,-96.98076,5.4,6.2,277,995.25,-1.2,67,4.30,0.0,1023.41,0.0
2018-04-28 08:30,50.630435,-96.9807583333333,5.8,6.4,278,995.29,-1.2,67,4.33,0.0,1023.45,0.0
2018-04-28 08:40,50.6304366666667,-96.9807583333333,5.4,6.4,273,995.41,-1.3,68,4.37,0.0,1023.60,0.0
2018-04-28 08:50,50.630465,-96.9807916666667,5.1,6.2,273,995.46,-1.3,68,4.39,0.0,1023.66,0.0
2018-04-28 09:00,50.6304383333333,-96.9807616666667,3.9,5.0,272,995.48,-1.4,69,4.36,0.0,1023.67,293.6
2018-04-28 09:10,50.6304366666667,-96.9807616666667,2.3,3.4,264,995.52,-1.7,71,4.37,0.0,1023.73,293.6
2018-04-28 09:20,50.63044,-96.9807583333333,2.0,3.9,283,995.51,-1.8,72,4.40,0.0,1023.74,293.6
2018-04-28 09:30,50.6304383333333,-96.9807583333333,2.5,3.9,290,995.49,-1.4,68,4.44,0.0,1023.71,293.6
2018-04-28 09:40,50.63044,-96.9807566666667,0.7,1.7,321,995.45,-1.4,70,4.36,0.0,1023.68,293.6
2018-04-28 09:50,50.63044,-96.9807566666667,2.2,3.4,274,995.40,-1.8,72,4.31,0.0,1023.64,293.6
2018-04-28 10:00,50.63044,-96.9807533333333,2.4,3.4,260,995.39,-1.7,69,4.36,0.0,1023.61,3.2
2018-04-28 10:10,50.6304416666667,-96.9807533333333,2.7,3.7,253,995.38,-2.0,71,4.40,0.0,1023.63,3.2
2018-04-28 10:20,50.63044,-96.9807516666667,2.7,3.5,263,995.37,-2.1,72,4.33,0.0,1023.62,3.2
2018-04-28 10:30,50.63044,-96.9807533333333,1.6,2.5,264,995.35,-2.0,72,4.35,0.0,1023.60,3.2
2018-04-28 10:40,50.6304416666667,-96.9807533333333,1.4,1.9,283,995.32,-1.9,71,4.39,0.0,1023.56,3.2
2018-04-28 10:50,50.6304416666667,-96.9807533333333,0.3,1.9,283,995.34,-2.1,72,4.44,0.0,1023.60,3.2
2018-04-28 11:00,50.6304533333333,-96.980735,0.2,1.1,226,995.38,-2.5,80,4.45,0.0,1023.67,41.2
2018-04-28 11:10,50.6304216666667,-96.9807616666667,1.1,1.6,236,995.47,-3.1,83,4.50,0.0,1023.80,41.2
2018-04-28 11:20,50.63041,-96.980755,0.7,1.2,239,995.53,-3.2,81,4.56,0.0,1023.85,41.2
2018-04-28 11:30,50.6304283333333,-96.9807516666667,0.8,1.1,252,995.66,-3.1,81,4.58,0.0,1023.98,41.2
2018-04-28 11:40,50.6304333333333,-96.980755,0.1,0.8,227,995.75,-2.7,79,4.57,0.0,1024.07,41.2
2018-04-28 11:50,50.6304333333333,-96.9807533333333,0.0,0.0,0,995.81,-2.4,81,4.59,0.0,1024.12,41.2
2018-04-28 12:00,50.630435,-96.9807566666667,0.2,1.0,108,995.84,-1.6,81,4.62,0.0,1024.12,360.0
2018-04-28 12:10,50.6304366666667,-96.9807566666667,0.9,1.5,141,995.88,-2.2,81,4.65,0.0,1024.19,360.0
2018-04-28 12:20,50.630435,-96.9807583333333,2.0,3.1,181,995.99,-3.0,86,4.66,0.0,1024.34,360.0
2018-04-28 12:30,50.630435,-96.9807566666667,2.6,3.2,188,996.10,-3.0,86,4.68,0.0,1024.45,360.0
2018-04-28 12:40,50.6304383333333,-96.9807616666667,2.2,3.0,191,996.11,-2.4,82,4.68,0.0,1024.44,360.0
2018-04-28 12:50,50.6304333333333,-96.9807566666667,3.3,4.5,157,996.11,-2.2,86,4.65,0.0,1024.45,360.0
2018-04-28 13:00,50.6304383333333,-96.9807566666667,4.8,6.2,155,996.13,-2.4,89,4.58,0.0,1024.52,270.0
2018-04-28 13:10,50.6304366666667,-96.9807566666667,4.9,6.0,158,996.14,-2.4,88,4.47,0.0,1024.54,270.0
2018-04-28 13:20,50.6304366666667,-96.980755,4.5,5.6,152,996.15,-2.3,88,4.46,0.0,1024.53,270.0
2018-04-28 13:30,50.6304383333333,-96.9807566666667,4.5,5.3,154,996.09,-2.2,88,4.47,0.0,1024.45,270.0
2018-04-28 13:40,50.6304383333333,-96.9807583333333,4.2,5.5,158,996.07,-2.1,90,4.48,0.0,1024.40,270.0
2018-04-28 13:50,50.6304383333333,-96.98076,4.7,5.9,162,996.07,-1.8,87,4.48,0.0,1024.34,270.0
2018-04-28 14:00,50.6304383333333,-96.98076,4.4,5.6,158,996.10,-1.5,86,4.44,0.0,1024.38,235.2
2018-04-28 14:10,50.6304383333333,-96.9807583333333,5.5,6.4,152,996.04,-1.2,84,4.38,0.0,1024.35,235.2
2018-04-28 14:20,50.6304383333333,-96.9807583333333,4.6,6.2,152,995.97,-1.0,85,4.32,0.0,1024.27,235.2
2018-04-28 14:30,50.6304383333333,-96.9807566666667,4.7,5.4,152,995.82,-0.5,85,4.29,0.0,1024.06,235.2
2018-04-28 14:40,50.6304383333333,-96.9807566666667,4.4,5.9,150,995.83,-0.2,83,4.27,0.0,1024.04,235.2
2018-04-28 14:50,50.6304383333333,-96.9807583333333,5.8,6.8,153,995.81,0.0,76,4.29,0.0,1024.02,235.2
2018-04-28 15:00,50.6304383333333,-96.9807566666667,5.5,7.1,144,995.73,0.5,76,4.32,0.0,1023.91,360.0
2018-04-28 15:10,50.63044,-96.9807566666667,5.1,6.9,136,995.62,1.2,78,4.21,0.0,1023.76,360.0
2018-04-28 15:20,50.63044,-96.9807583333333,4.1,6.7,146,995.54,0.9,83,4.19,0.0,1023.68,360.0
2018-04-28 15:30,50.63044,-96.9807566666667,2.9,4.7,146,995.46,1.1,85,4.27,0.0,1023.59,360.0
2018-04-28 15:40,50.63044,-96.9807566666667,3.1,5.7,152,995.38,1.3,85,4.36,0.0,1023.48,360.0
2018-04-28 15:50,50.6304483333333,-96.980755,3.7,5.7,150,995.25,2.2,82,4.43,0.0,1023.29,360.0
2018-04-28 16:00,50.6304183333333,-96.9807383333333,1.3,3.0,122,995.19,3.9,75,4.49,0.0,1023.13,171.6
2018-04-28 16:10,50.6304316666667,-96.9807466666667,3.8,5.9,124,995.10,4.9,74,4.55,0.0,1022.96,171.6
2018-04-28 16:20,50.6304416666667,-96.9807466666667,5.6,8.6,136,995.03,3.8,79,4.58,0.0,1022.92,171.6
2018-04-28 16:30,50.6304416666667,-96.980745,7.9,10.5,131,994.92,3.9,80,4.60,0.0,1022.79,171.6
2018-04-28 16:40,50.63044,-96.9807466666667,7.7,10.7,132,994.88,3.9,79,4.62,0.0,1022.74,171.6
2018-04-28 16:50,50.63044,-96.9807466666667,8.9,12.5,138,994.75,3.8,77,4.62,0.0,1022.59,171.6
2018-04-28 17:00,50.6304166666667,-96.980755,8.0,10.7,129,994.65,4.2,78,4.62,0.0,1022.42,360.0
2018-04-28 17:10,50.63044,-96.98076,8.7,11.0,124,994.60,4.3,76,4.62,0.0,1022.38,360.0
2018-04-28 17:20,50.6304383333333,-96.98076,9.5,11.4,121,994.51,4.2,77,4.61,0.0,1022.29,360.0
2018-04-28 17:30,50.6304433333333,-96.9807766666667,10.2,13.9,132,994.39,4.6,71,4.62,0.0,1022.13,360.0
2018-04-28 17:40,50.6304433333333,-96.9807683333333,9.5,11.7,133,994.28,4.8,68,4.61,0.0,1021.96,360.0
2018-04-28 17:50,50.6304433333333,-96.98077,9.3,12.8,131,994.12,4.9,67,4.61,0.0,1021.71,360.0
2018-04-28 18:00,50.6304433333333,-96.98077,9.3,13.0,134,993.95,4.9,64,4.61,0.0,1021.48,270.0
2018-04-28 18:10,50.6304433333333,-96.98077,9.7,14.5,139,993.76,4.7,65,4.59,0.0,1021.35,270.0
2018-04-28 18:20,50.6304416666667,-96.9807666666667,8.4,11.4,143,993.59,5.1,61,4.57,0.0,1021.16,270.0
2018-04-28 18:30,50.6304416666667,-96.980765,8.8,12.1,137,993.44,5.1,63,4.57,0.0,1021.00,270.0
2018-04-28 18:40,50.6304416666667,-96.980765,9.3,12.6,132,993.27,5.6,60,4.54,0.0,1020.81,270.0
2018-04-28 18:50,50.6304416666667,-96.980765,9.2,12.6,136,993.22,5.4,61,4.54,0.0,1020.74,270.0
2018-04-28 19:00,50.63044,-96.9807633333333,10.4,14.0,131,993.01,5.8,59,4.56,0.0,1020.50,335.7
2018-04-28 19:10,50.6304166666667,-96.98077,9.2,11.7,130,992.94,5.7,61,4.53,0.0,1020.44,335.7
2018-04-28 19:20,50.630425,-96.9807483333333,9.9,13.9,133,992.77,5.5,61,4.53,0.0,1020.25,335.7
2018-04-28 19:30,50.6304316666667,-96.98075,9.3,13.4,144,992.67,5.3,59,4.54,0.0,1020.15,335.7
2018-04-28 19:40,50.630435,-96.980755,10.3,13.4,132,992.54,6.0,58,4.54,0.0,1019.98,335.7
2018-04-28 19:50,50.6304366666667,-96.9807583333333,8.7,12.5,140,992.46,5.9,57,4.58,0.0,1019.90,335.7
2018-04-28 20:00,50.6304366666667,-96.9807616666667,9.8,13.5,127,992.24,5.7,61,4.62,0.0,1019.70,360.0
2018-04-28 20:10,50.6304383333333,-96.9807616666667,10.6,14.4,142,992.08,5.6,58,4.67,0.0,1019.52,360.0
2018-04-28 20:20,50.6304783333333,-96.9807716666667,11.0,16.0,148,991.82,6.8,50,4.61,0.0,1019.19,360.0
2018-04-28 20:30,50.6304416666667,-96.9807516666667,12.0,15.8,153,991.62,6.4,52,4.52,0.0,1018.98,360.0
2018-04-28 20:40,50.63044,-96.9807583333333,12.6,15.3,151,991.42,6.5,52,4.54,0.0,1018.79,360.0
2018-04-28 20:50,50.6304383333333,-96.980755,13.0,16.0,150,991.25,7.0,49,4.69,0.0,1018.56,360.0
2018-04-28 21:00,50.6304383333333,-96.980755,13.9,17.3,150,991.01,7.5,47,4.73,0.0,1018.29,90.0
2018-04-28 21:10,50.6304116666667,-96.980745,12.7,15.7,154,990.87,7.3,48,4.63,0.0,1018.17,90.0
2018-04-28 21:20,50.6304533333333,-96.980765,11.0,16.0,155,990.77,7.4,49,4.63,0.0,1018.07,90.0
2018-04-28 21:30,50.630445,-96.98076,14.4,18.1,154,990.53,8.7,42,4.66,0.0,1017.72,90.0
2018-04-28 21:40,50.63044,-96.9807566666667,13.2,17.0,145,990.43,8.7,44,4.60,0.0,1017.63,90.0
2018-04-28 21:50,50.6304416666667,-96.9807583333333,12.1,24.9,163,990.33,9.1,41,4.62,0.0,1017.52,90.0
2018-04-28 22:00,50.6304416666667,-96.9807583333333,14.2,21.4,181,990.25,12.2,32,4.65,0.0,1017.30,90.0
2018-04-28 22:10,50.6304416666667,-96.9807583333333,11.8,15.7,153,990.07,9.0,44,4.68,0.0,1017.20,90.0
2018-04-28 22:20,50.6304416666667,-96.9807566666667,13.7,21.7,183,989.95,11.3,35,4.70,0.0,1016.99,90.0
2018-04-28 22:30,50.6304433333333,-96.9807583333333,14.5,24.4,175,989.66,10.7,37,4.80,0.0,1016.71,90.0
2018-04-28 22:40,50.6304316666667,-96.98076,19.1,26.8,186,989.51,13.3,29,4.82,0.0,1016.41,90.0
2018-04-28 22:50,50.630445,-96.9807583333333,15.5,20.6,184,989.41,13.5,29,4.80,0.0,1016.27,90.0
2018-04-28 23:00,50.630445,-96.9807516666667,15.5,21.1,195,989.33,13.7,28,4.81,0.0,1016.19,48.3
2018-04-28 23:10,50.630445,-96.9807533333333,17.3,23.3,185,989.20,13.6,30,4.86,0.0,1016.06,48.3
2018-04-28 23:20,50.630445,-96.9807533333333,15.6,23.0,184,989.11,13.5,30,4.87,0.0,1015.91,48.3
2018-04-28 23:30,50.630445,-96.9807533333333,17.0,23.9,184,988.97,13.4,30,4.89,0.0,1015.77,48.3
2018-04-28 23:40,50.6304466666667,-96.980755,17.5,22.9,186,988.82,13.3,30,4.93,0.0,1015.60,48.3
